Norwood, MA

6:36 AM EDT on March 25, 2017 (GMT -0400)
Norwood Memorial

Weather History for KOWD - September, 2012

Change the Weather History Date:

Thursday, September 20, 2012

  Actual Average Record
Temperature  
Mean Temperature 55 °F -  
Max Temperature 66 °F 71 °F 82 °F (1998)
Min Temperature 44 °F 47 °F 28 °F (2014)
Degree Days  
Heating Degree Days 10    
Growing Degree Days 5 (Base 50)    
Moisture  
Dew Point 44 °F    
Average Humidity 77    
Maximum Humidity 93    
Minimum Humidity 43    
Precipitation  
Precipitation 0.00 in - - ()
Sea Level Pressure  
Sea Level Pressure 30.20 in    
Wind  
Wind Speed 2 mph (NE)    
Max Wind Speed 14 mph    
Max Gust Speed 18 mph    
Visibility 6 miles    
Events      
Averages and records for this station are not official NWS values.
T = Trace of Precipitation, MM = Missing Value Source: NWS Daily Summary

Daily Weather History Graph

Daily Weather History Graph

Search for Another Location

Airport or City:

Trip Planner

Search our weather history database for the weather conditions in past years. The results will help you decide how hot, cold, wet, or windy it might be!

Date:

Astronomy

Sep. 20, 2012 Rise Set
Actual Time 6:30 AM EDT 6:44 PM EDT
Civil Twilight 6:02 AM EDT 7:12 PM EDT
Nautical Twilight 5:29 AM EDT 7:45 PM EDT
Astronomical Twilight 4:55 AM EDT 8:18 PM EDT
Moon 11:51 AM EDT (9/20) 9:37 PM EDT (9/20)
Length of Visible Light 13h 10m
Length of Day
12h 14m
Waxing Crescent, 26% of the Moon is Illuminated
Sep 20
Waxing Crescent
Sep 22
First Quarter
Sep 29
Full
Oct 8
Last Quarter
Oct 15
New

Hourly Weather History & Observations

Time (EDT) Temp. Dew Point Humidity Pressure Visibility Wind Dir Wind Speed Gust Speed Precip Events Conditions
12:02 AM 46.4 °F 44.6 °F 93% 30.19 in 0.8 mi Calm Calm - N/A   Clear
12:18 AM 48.2 °F 44.6 °F 87% 30.19 in 7.0 mi Calm Calm - N/A   Clear
12:23 AM 48.2 °F 44.6 °F 87% 30.19 in 1.8 mi Calm Calm - N/A   Clear
12:40 AM 46.4 °F 42.8 °F 87% 30.20 in 0.8 mi Calm Calm - N/A   Mist
12:53 AM 46.9 °F 44.1 °F 90% 30.20 in 0.8 mi Calm Calm - N/A   Mist
12:59 AM 46.4 °F 44.6 °F 93% 30.20 in 1.2 mi Calm Calm - N/A   Partly Cloudy
1:09 AM 46.4 °F 42.8 °F 87% 30.20 in 2.5 mi Calm Calm - N/A   Clear
1:23 AM 46.4 °F 42.8 °F 87% 30.20 in 0.8 mi Calm Calm - N/A   Clear
1:53 AM 44.1 °F 42.1 °F 93% 30.20 in 1.5 mi Calm Calm - N/A   Clear
1:58 AM 44.6 °F 41.0 °F 87% 30.20 in 3.0 mi Calm Calm - N/A   Clear
2:53 AM 46.9 °F 42.1 °F 83% 30.21 in 10.0 mi Calm Calm - N/A   Clear
3:53 AM 48.0 °F 44.1 °F 86% 30.22 in 10.0 mi Calm Calm - N/A   Clear
4:53 AM 45.0 °F 42.1 °F 90% 30.23 in 6.0 mi Calm Calm - N/A   Clear
4:57 AM 44.6 °F 42.8 °F 93% 30.23 in 1.5 mi Calm Calm - N/A   Clear
5:08 AM 44.6 °F 42.8 °F 93% 30.24 in 4.0 mi Calm Calm - N/A   Clear
5:33 AM 44.6 °F 41.0 °F 87% 30.24 in 1.5 mi Calm Calm - N/A   Clear
6:53 AM 48.9 °F 45.0 °F 86% 30.24 in 10.0 mi NNW 3.5 mph - N/A   Clear
7:53 AM 53.1 °F 46.9 °F 80% 30.25 in 10.0 mi Calm Calm - N/A   Clear
8:53 AM 59.0 °F 46.9 °F 64% 30.26 in 10.0 mi NNW 3.5 mph - N/A   Clear
9:53 AM 62.1 °F 46.0 °F 56% 30.25 in 10.0 mi NE 13.8 mph 18.4 mph N/A   Clear
10:53 AM 64.9 °F 46.9 °F 52% 30.24 in 10.0 mi NNE 10.4 mph - N/A   Clear
11:53 AM 64.9 °F 46.0 °F 50% 30.23 in 10.0 mi NE 8.1 mph 17.3 mph N/A   Clear
12:53 PM 64.9 °F 46.0 °F 50% 30.21 in 10.0 mi NE 9.2 mph 17.3 mph N/A   Clear
1:53 PM 64.9 °F 42.1 °F 43% 30.20 in 10.0 mi NE 8.1 mph - N/A   Clear
2:39 PM 66.2 °F 42.8 °F 43% 30.19 in 9.0 mi Variable 4.6 mph 16.1 mph N/A   Partly Cloudy
2:53 PM 64.9 °F 43.0 °F 45% 30.19 in 5.0 mi East 9.2 mph - N/A   Haze
3:53 PM 64.9 °F 43.0 °F 45% 30.18 in 10.0 mi ENE 5.8 mph - N/A   Clear
4:53 PM 63.0 °F 45.0 °F 52% 30.18 in 10.0 mi NE 6.9 mph - N/A   Clear
5:53 PM 60.1 °F 46.9 °F 62% 30.17 in 10.0 mi ENE 5.8 mph - N/A   Clear
6:53 PM 57.0 °F 46.9 °F 69% 30.18 in 10.0 mi Calm Calm - N/A   Clear
7:53 PM 53.1 °F 46.9 °F 80% 30.18 in 10.0 mi Calm Calm - N/A   Clear
8:53 PM 50.0 °F 46.0 °F 86% 30.18 in 10.0 mi Calm Calm - N/A   Clear
9:17 PM 48.2 °F 44.6 °F 87% 30.18 in 2.0 mi Calm Calm - N/A   Clear
9:25 PM 48.2 °F 44.6 °F 87% 30.18 in 10.0 mi Calm Calm - N/A   Clear
9:53 PM 48.9 °F 45.0 °F 86% 30.18 in 10.0 mi Calm Calm - N/A   Clear
10:22 PM 46.4 °F 44.6 °F 93% 30.17 in 1.8 mi Calm Calm - N/A   Clear
10:36 PM 48.2 °F 44.6 °F 87% 30.17 in 3.0 mi Calm Calm - N/A   Clear
10:53 PM 46.9 °F 44.1 °F 90% 30.17 in 10.0 mi Calm Calm - N/A   Clear
11:58 PM 44.6 °F 42.8 °F 93% 30.16 in 0.8 mi Calm Calm - N/A   Clear